Weather History for Mora, MN

Change the Weather History Date:

Saturday, February 22, 2014

  Actual Average Record
Temperature  
Mean Temperature 8 °F -  
Max Temperature 15 °F 32 °F 56 °F (1961)
Min Temperature 1 °F 7 °F -24 °F (1936)
Degree Days  
Heating Degree Days 57    
Moisture  
Dew Point -1 °F    
Average Humidity 65    
Maximum Humidity 78    
Minimum Humidity 53    
Precipitation  
Precipitation 0.00 in - - ()
Sea Level Pressure  
Sea Level Pressure 29.90 in    
Wind  
Wind Speed 10 mph (West)    
Max Wind Speed 16 mph    
Max Gust Speed 22 mph    
Visibility 10 miles    
Events      
Averages and records for this station are not official NWS values.
T = Trace of Precipitation, MM = Missing Value Source: NWS Daily Summary

Daily Weather History Graph

Daily Weather History Graph

Search for Another Location

Airport:

Trip Planner

Search our weather history database for the weather conditions in past years. The results will help you decide how hot, cold, wet, or windy it might be!

Date:

Astronomy

Feb. 22, 2014 Rise Set
Actual Time 7:03 AM CST 5:49 PM CST
Civil Twilight 6:33 AM CST 6:20 PM CST
Nautical Twilight 5:59 AM CST 6:54 PM CST
Astronomical Twilight 5:24 AM CST 7:29 PM CST
Moon 1:07 AM CST (2/22) 10:52 AM CST (2/22)
Length of Visible Light 11h 46m
Length of Day
10h 45m
Waning Gibbous, 50% of the Moon is Illuminated
Feb 22
Waning Gibbous
Mar 1
New
Mar 8
First Quarter
Mar 16
Full
Mar 23
Last Quarter

Hourly Weather History & Observations

Time (CST) Temp. Windchill Dew Point Humidity Pressure Visibility Wind Dir Wind Speed Gust Speed Precip Events Conditions
12:12 AM 6.8 °F -6.9 °F -0.4 °F 72% 29.70 in 10.0 mi West 9.2 mph 16.1 mph N/A   Clear
12:32 AM 6.8 °F -7.8 °F -0.4 °F 72% 29.71 in 10.0 mi West 10.4 mph 17.3 mph N/A   Clear
12:52 AM 6.8 °F -8.6 °F -0.4 °F 72% 29.72 in 10.0 mi West 11.5 mph - N/A   Clear
1:12 AM 6.8 °F -7.8 °F -0.4 °F 72% 29.72 in 10.0 mi West 10.4 mph 16.1 mph N/A   Clear
1:32 AM 6.8 °F -6.9 °F -0.4 °F 72% 29.73 in 10.0 mi West 9.2 mph - N/A   Clear
1:52 AM 6.8 °F -7.8 °F -0.4 °F 72% 29.74 in 10.0 mi West 10.4 mph - N/A   Clear
2:12 AM 6.8 °F -7.8 °F -0.4 °F 72% 29.75 in 10.0 mi West 10.4 mph - N/A   Clear
2:32 AM 5.0 °F -11.6 °F -0.4 °F 78% 29.75 in 10.0 mi West 12.7 mph 18.4 mph N/A   Clear
2:52 AM 5.0 °F -10.0 °F -0.4 °F 78% 29.76 in 10.0 mi West 10.4 mph 16.1 mph N/A   Clear
3:12 AM 5.0 °F -10.0 °F -2.2 °F 72% 29.76 in 10.0 mi West 10.4 mph 17.3 mph N/A   Clear
3:32 AM 5.0 °F -10.0 °F -2.2 °F 72% 29.76 in 10.0 mi West 10.4 mph 16.1 mph N/A   Clear
3:52 AM 5.0 °F -10.0 °F -2.2 °F 72% 29.77 in 10.0 mi West 10.4 mph - N/A   Clear
4:12 AM 5.0 °F -11.6 °F -2.2 °F 72% 29.78 in 10.0 mi West 12.7 mph 16.1 mph N/A   Clear
4:32 AM 5.0 °F -10.0 °F -2.2 °F 72% 29.79 in 10.0 mi West 10.4 mph - N/A   Clear
4:52 AM 5.0 °F -10.0 °F -2.2 °F 72% 29.80 in 10.0 mi West 10.4 mph - N/A   Clear
5:12 AM 5.0 °F -9.1 °F -2.2 °F 72% 29.82 in 10.0 mi West 9.2 mph - N/A   Clear
5:32 AM 3.2 °F -10.3 °F -4.0 °F 72% 29.82 in 10.0 mi West 8.1 mph - N/A   Clear
5:52 AM 3.2 °F -9.1 °F -4.0 °F 72% 29.82 in 10.0 mi West 6.9 mph - N/A   Clear
6:12 AM 1.4 °F -11.3 °F -4.0 °F 78% 29.83 in 10.0 mi West 6.9 mph - N/A   Clear
6:32 AM 1.4 °F -13.5 °F -5.8 °F 72% 29.83 in 10.0 mi West 9.2 mph - N/A   Clear
6:52 AM 1.4 °F -12.5 °F -5.8 °F 72% 29.84 in 10.0 mi West 8.1 mph - N/A   Clear
7:12 AM 1.4 °F -12.5 °F -5.8 °F 72% 29.85 in 10.0 mi West 8.1 mph - N/A   Clear
7:32 AM 1.4 °F -12.5 °F -5.8 °F 72% 29.87 in 10.0 mi West 8.1 mph - N/A   Clear
7:52 AM 1.4 °F -13.5 °F -4.0 °F 78% 29.87 in 10.0 mi West 9.2 mph - N/A   Clear
8:12 AM 5.0 °F -9.1 °F -4.0 °F 66% 29.88 in 10.0 mi West 9.2 mph - N/A   Clear
8:32 AM 5.0 °F -8.1 °F -4.0 °F 66% 29.88 in 10.0 mi West 8.1 mph - N/A   Clear
8:52 AM 6.8 °F -6.9 °F -2.2 °F 67% 29.88 in 10.0 mi West 9.2 mph - N/A   Clear
9:12 AM 6.8 °F -8.6 °F -4.0 °F 61% 29.88 in 10.0 mi West 11.5 mph 16.1 mph N/A   Clear
9:32 AM 6.8 °F -10.7 °F -4.0 °F 61% 29.89 in 10.0 mi WNW 15.0 mph 19.6 mph N/A   Clear
9:52 AM 8.6 °F -4.7 °F -2.2 °F 62% 29.90 in 10.0 mi West 9.2 mph - N/A   Clear
10:12 AM 10.4 °F -3.3 °F -2.2 °F 57% 29.90 in 10.0 mi WNW 10.4 mph - N/A   Clear
10:32 AM 12.2 °F -1.8 °F -0.4 °F 57% 29.90 in 10.0 mi WNW 11.5 mph - N/A   Clear
10:52 AM 12.2 °F -3.1 °F -0.4 °F 57% 29.91 in 5.0 mi West 13.8 mph 21.9 mph N/A   Haze
11:12 AM 12.2 °F -1.0 °F -0.4 °F 57% 29.91 in 10.0 mi West 10.4 mph - N/A   Clear
11:32 AM 12.2 °F -2.5 °F -0.4 °F 57% 29.91 in 10.0 mi West 12.7 mph 18.4 mph N/A   Clear
11:52 AM 12.2 °F -0.2 °F -0.4 °F 57% 29.91 in 10.0 mi West 9.2 mph 17.3 mph N/A   Clear
12:12 PM 14.0 °F 1.2 °F 1.4 °F 57% 29.91 in 10.0 mi WSW 10.4 mph 16.1 mph N/A   Clear
12:32 PM 14.0 °F -0.2 °F 1.4 °F 57% 29.91 in 10.0 mi West 12.7 mph - N/A   Clear
12:52 PM 14.0 °F -2.0 °F -0.4 °F 53% 29.90 in 10.0 mi WNW 16.1 mph 20.7 mph N/A   Clear
1:12 PM 14.0 °F -0.8 °F -0.4 °F 53% 29.91 in 10.0 mi WNW 13.8 mph 21.9 mph N/A   Clear
1:32 PM 15.8 °F 3.4 °F 1.4 °F 53% 29.91 in 10.0 mi West 10.4 mph 19.6 mph N/A   Clear
1:52 PM 15.8 °F 2.1 °F 1.4 °F 53% 29.91 in 10.0 mi West 12.7 mph 20.7 mph N/A   Clear
2:12 PM 15.8 °F 1.4 °F 1.4 °F 53% 29.92 in 10.0 mi West 13.8 mph 18.4 mph N/A   Clear
2:32 PM 14.0 °F -1.4 °F 1.4 °F 57% 29.92 in 10.0 mi West 15.0 mph - N/A   Clear
2:52 PM 14.0 °F -0.8 °F 1.4 °F 57% 29.93 in 10.0 mi West 13.8 mph 19.6 mph N/A   Clear
3:12 PM 14.0 °F -1.4 °F 1.4 °F 57% 29.93 in 10.0 mi West 15.0 mph 20.7 mph N/A   Clear
3:32 PM 14.0 °F 1.2 °F 1.4 °F 57% 29.93 in 10.0 mi West 10.4 mph 20.7 mph N/A   Clear
3:52 PM 14.0 °F -0.2 °F 1.4 °F 57% 29.94 in 10.0 mi West 12.7 mph 18.4 mph N/A   Clear
4:12 PM 14.0 °F 0.5 °F 1.4 °F 57% 29.94 in 10.0 mi West 11.5 mph 18.4 mph N/A   Clear
4:32 PM 14.0 °F -1.4 °F 1.4 °F 57% 29.94 in 10.0 mi West 15.0 mph 21.9 mph N/A   Clear
4:52 PM 14.0 °F 0.5 °F 1.4 °F 57% 29.95 in 10.0 mi West 11.5 mph - N/A   Clear
5:12 PM 12.2 °F -2.5 °F -0.4 °F 57% 29.96 in 10.0 mi West 12.7 mph - N/A   Clear
5:32 PM 12.2 °F -0.2 °F -0.4 °F 57% 29.97 in 10.0 mi West 9.2 mph - N/A   Clear
5:52 PM 12.2 °F -1.8 °F -0.4 °F 57% 29.97 in 10.0 mi West 11.5 mph 16.1 mph N/A   Clear
6:12 PM 10.4 °F -2.4 °F -0.4 °F 62% 29.98 in 10.0 mi West 9.2 mph - N/A   Clear
6:32 PM 10.4 °F -3.3 °F -0.4 °F 62% 29.99 in 10.0 mi West 10.4 mph 16.1 mph N/A   Clear
6:52 PM 8.6 °F -3.7 °F -0.4 °F 67% 30.00 in 10.0 mi West 8.1 mph - N/A   Clear
7:12 PM 8.6 °F -3.7 °F -2.2 °F 62% 30.01 in 10.0 mi West 8.1 mph - N/A   Clear
7:32 PM 6.8 °F -4.8 °F -2.2 °F 67% 30.01 in 10.0 mi West 6.9 mph - N/A   Clear
7:52 PM 6.8 °F -3.5 °F -2.2 °F 67% 30.02 in 10.0 mi West 5.8 mph - N/A   Clear
8:12 PM 6.8 °F -3.5 °F -0.4 °F 72% 30.02 in 10.0 mi West 5.8 mph - N/A   Clear
8:32 PM 6.8 °F -4.8 °F -0.4 °F 72% 30.02 in 10.0 mi West 6.9 mph - N/A   Clear
8:52 PM 5.0 °F -5.6 °F -4.0 °F 66% 30.03 in 10.0 mi West 5.8 mph - N/A   Clear
9:12 PM 5.0 °F -6.9 °F -4.0 °F 66% 30.04 in 10.0 mi West 6.9 mph - N/A   Clear
9:32 PM 6.8 °F -5.9 °F -0.4 °F 72% 30.04 in 10.0 mi WNW 8.1 mph - N/A   Clear
9:52 PM 6.8 °F -6.9 °F -0.4 °F 72% 30.04 in 10.0 mi West 9.2 mph - N/A   Clear
10:12 PM 6.8 °F -5.9 °F -0.4 °F 72% 30.05 in 10.0 mi WNW 8.1 mph - N/A   Clear
10:32 PM 5.0 °F -8.1 °F -2.2 °F 72% 30.05 in 10.0 mi West 8.1 mph - N/A   Clear
10:52 PM 5.0 °F -8.1 °F -2.2 °F 72% 30.05 in 10.0 mi WNW 8.1 mph - N/A   Clear
11:12 PM 5.0 °F -8.1 °F -2.2 °F 72% 30.06 in 10.0 mi WNW 8.1 mph - N/A   Clear
11:32 PM 5.0 °F -8.1 °F -4.0 °F 66% 30.07 in 10.0 mi WNW 8.1 mph - N/A   Clear
11:52 PM 5.0 °F -6.9 °F -4.0 °F 66% 30.07 in 10.0 mi WNW 6.9 mph - N/A   Clear